Radiation Dose at Monitoring Post of Fukushima Daini Nuclear Power Station
Date,Time,MP-1(microSv/h),MP-2(microSv/h),MP-3(microSv/h),MP-4(microSv/h),MP-5(microSv/h),MP-6(microSv/h),MP-7(microSv/h),Wind Direction,Wind Velocity(m/s),Rain
2019/08/09,00:00,0.191,0.173,0.296,0.279,0.274,0.148,0.090,south,0.9,No
2019/08/09,00:10,0.189,0.174,0.296,0.277,0.273,0.146,0.091,south-southeast,1.8,No
2019/08/09,00:20,0.194,0.173,0.293,0.276,0.271,0.147,0.093,south,2.3,No
2019/08/09,00:30,0.192,0.172,0.296,0.281,0.271,0.149,0.093,south,2.2,No
2019/08/09,00:40,0.192,0.175,0.296,0.278,0.275,0.147,0.093,south-southeast,1.8,No
2019/08/09,00:50,0.192,0.174,0.295,0.277,0.272,0.146,0.091,south,1.1,No
2019/08/09,01:00,0.194,0.173,0.292,0.277,0.271,0.147,0.092,south,1.0,No
2019/08/09,01:10,0.193,0.174,0.296,0.279,0.270,0.148,0.091,-,CALM,No
2019/08/09,01:20,0.191,0.174,0.297,0.277,0.274,0.147,0.092,-,CALM,No
2019/08/09,01:30,0.192,0.173,0.293,0.276,0.273,0.146,0.091,south,1.7,No
2019/08/09,01:40,0.194,0.173,0.294,0.278,0.270,0.148,0.092,south,3.4,No
2019/08/09,01:50,0.192,0.175,0.297,0.278,0.270,0.148,0.092,south,2.3,No
2019/08/09,02:00,0.191,0.173,0.296,0.278,0.273,0.147,0.091,south,2.0,No
2019/08/09,02:10,0.192,0.172,0.294,0.277,0.272,0.147,0.092,south-southwest,2.0,No
2019/08/09,02:20,0.193,0.174,0.295,0.281,0.270,0.148,0.093,south-southeast,2.8,No
2019/08/09,02:30,0.193,0.175,0.298,0.279,0.271,0.147,0.093,south,3.1,No
2019/08/09,02:40,0.192,0.174,0.296,0.276,0.275,0.148,0.092,south-southwest,3.4,No
2019/08/09,02:50,0.193,0.174,0.293,0.278,0.273,0.148,0.092,south,4.2,No
2019/08/09,03:00,0.195,0.176,0.296,0.281,0.271,0.149,0.093,south,4.3,No
2019/08/09,03:10,0.192,0.175,0.298,0.278,0.272,0.148,0.093,south,3.3,No
2019/08/09,03:20,0.191,0.173,0.294,0.275,0.275,0.147,0.092,south,3.7,No
2019/08/09,03:30,0.195,0.175,0.295,0.279,0.273,0.149,0.092,south-southwest,3.4,No
2019/08/09,03:40,0.194,0.174,0.297,0.279,0.271,0.148,0.093,south-southwest,3.0,No
2019/08/09,03:50,0.194,0.174,0.297,0.278,0.271,0.148,0.092,south-southwest,2.8,No
2019/08/09,04:00,0.192,0.175,0.295,0.277,0.276,0.149,0.093,south-southwest,2.6,No
2019/08/09,04:10,0.195,0.174,0.297,0.280,0.275,0.150,0.095,south,2.8,No
2019/08/09,04:20,0.195,0.175,0.298,0.281,0.272,0.149,0.094,south-southwest,2.9,No
2019/08/09,04:30,0.194,0.174,0.297,0.278,0.274,0.149,0.094,southwest,2.8,No
2019/08/09,04:40,0.194,0.176,0.294,0.279,0.275,0.149,0.094,southwest,1.7,No
2019/08/09,04:50,0.196,0.175,0.299,0.280,0.274,0.150,0.094,south-southwest,1.3,No
2019/08/09,05:00,0.193,0.175,0.299,0.280,0.271,0.147,0.094,southwest,1.2,No
2019/08/09,05:10,0.193,0.177,0.295,0.277,0.276,0.149,0.093,west-southwest,0.6,No
2019/08/09,05:20,0.194,0.175,0.296,0.280,0.276,0.149,0.094,southwest,0.7,No
2019/08/09,05:30,0.193,0.174,0.298,0.282,0.272,0.149,0.094,west,0.6,No
2019/08/09,05:40,0.194,0.176,0.296,0.276,0.271,0.148,0.094,-,CALM,No
2019/08/09,05:50,0.192,0.176,0.294,0.279,0.275,0.148,0.092,south-southeast,1.1,No
2019/08/09,06:00,0.195,0.174,0.297,0.280,0.274,0.149,0.092,south-southeast,0.7,No
2019/08/09,06:10,0.194,0.173,0.298,0.279,0.272,0.148,0.093,south,0.9,No
2019/08/09,06:20,0.193,0.175,0.295,0.276,0.271,0.149,0.093,south,1.3,No
2019/08/09,06:30,0.190,0.176,0.294,0.276,0.271,0.149,0.093,southwest,2.0,No
2019/08/09,06:40,0.194,0.174,0.298,0.281,0.270,0.149,0.093,southwest,1.7,No
2019/08/09,06:50,0.195,0.174,0.297,0.279,0.270,0.150,0.092,west-southwest,1.1,No
2019/08/09,07:00,0.193,0.173,0.295,0.278,0.277,0.148,0.092,west,1.1,No
2019/08/09,07:10,0.192,0.174,0.294,0.277,0.275,0.149,0.093,northwest,0.9,No
2019/08/09,07:20,0.191,0.175,0.293,0.277,0.273,0.149,0.093,north-northeast,0.6,No
2019/08/09,07:30,0.192,0.175,0.293,0.275,0.273,0.149,0.093,east-northeast,0.8,No
2019/08/09,07:40,0.195,0.176,0.294,0.277,0.271,0.147,0.093,northeast,0.6,No
2019/08/09,07:50,0.194,0.174,0.294,0.277,0.272,0.149,0.092,east-northeast,1.2,No
2019/08/09,08:00,0.195,0.176,0.294,0.278,0.272,0.148,0.092,north-northeast,1.2,No
2019/08/09,08:10,0.193,0.174,0.295,0.278,0.272,0.149,0.093,northeast,1.3,No
2019/08/09,08:20,0.193,0.175,0.294,0.278,0.272,0.148,0.093,northeast,1.5,No
2019/08/09,08:30,0.193,0.174,0.294,0.279,0.273,0.148,0.092,north-northeast,2.0,No
2019/08/09,08:40,0.193,0.174,0.293,0.279,0.273,0.147,0.092,north-northeast,1.2,No
2019/08/09,08:50,0.193,0.174,0.293,0.279,0.272,0.148,0.092,north-northeast,0.9,No
2019/08/09,09:00,0.191,0.175,0.294,0.279,0.275,0.148,0.092,northeast,1.3,No
2019/08/09,09:10,0.193,0.174,0.294,0.280,0.273,0.148,0.092,east-northeast,0.7,No
2019/08/09,09:20,0.193,0.175,0.294,0.281,0.274,0.148,0.093,-,CALM,No
2019/08/09,09:30,0.192,0.175,0.294,0.281,0.274,0.148,0.093,northeast,1.3,No
2019/08/09,09:40,0.194,0.176,0.296,0.282,0.276,0.148,0.093,east-northeast,1.5,No
2019/08/09,09:50,0.194,0.176,0.294,0.281,0.275,0.149,0.092,east,0.9,No
2019/08/09,10:00,0.194,0.176,0.294,0.283,0.274,0.148,0.092,east-southeast,1.8,No
2019/08/09,10:10,0.194,0.176,0.296,0.282,0.274,0.148,0.093,east-southeast,2.0,No
2019/08/09,10:20,0.195,0.176,0.295,0.281,0.275,0.148,0.092,east-southeast,2.5,No
2019/08/09,10:30,0.193,0.175,0.295,0.281,0.274,0.148,0.093,east-southeast,3.6,No
2019/08/09,10:40,0.195,0.175,0.297,0.281,0.274,0.149,0.093,southeast,2.9,No
2019/08/09,10:50,0.194,0.174,0.296,0.280,0.274,0.149,0.092,southeast,4.0,No
2019/08/09,11:00,0.194,0.175,0.297,0.282,0.274,0.150,0.092,southeast,3.9,No
2019/08/09,11:10,0.194,0.175,0.299,0.280,0.272,0.149,0.093,southeast,4.5,No
2019/08/09,11:20,0.194,0.176,0.299,0.281,0.272,0.150,0.093,southeast,4.1,No
2019/08/09,11:30,0.193,0.174,0.299,0.279,0.271,0.149,0.093,south-southeast,4.8,No
2019/08/09,11:40,0.194,0.175,0.299,0.280,0.272,0.149,0.092,south-southeast,4.8,No
2019/08/09,11:50,0.194,0.174,0.298,0.280,0.272,0.149,0.092,southeast,4.6,No
2019/08/09,12:00,0.194,0.175,0.298,0.280,0.271,0.148,0.092,south-southeast,4.8,No
2019/08/09,12:10,0.192,0.175,0.298,0.281,0.271,0.149,0.092,southeast,4.6,No
2019/08/09,12:20,0.194,0.175,0.298,0.281,0.272,0.149,0.092,south-southeast,4.2,No
2019/08/09,12:30,0.196,0.175,0.299,0.281,0.271,0.150,0.092,south-southeast,4.8,No
2019/08/09,12:40,0.194,0.175,0.298,0.282,0.271,0.149,0.092,south-southeast,4.3,No
2019/08/09,12:50,0.194,0.175,0.298,0.281,0.271,0.149,0.092,south-southeast,4.2,No
2019/08/09,13:00,0.194,0.175,0.298,0.283,0.272,0.149,0.092,southeast,3.7,No
2019/08/09,13:10,0.195,0.176,0.297,0.281,0.271,0.149,0.092,south-southeast,5.5,No
2019/08/09,13:20,0.193,0.174,0.298,0.280,0.272,0.149,0.091,south-southeast,5.3,No
2019/08/09,13:30,0.194,0.174,0.299,0.281,0.272,0.148,0.092,south,4.6,No
2019/08/09,13:40,0.192,0.175,0.298,0.280,0.270,0.148,0.092,south,4.8,No
2019/08/09,13:50,0.193,0.174,0.297,0.280,0.271,0.148,0.092,south,4.4,No
2019/08/09,14:00,0.193,0.174,0.295,0.280,0.271,0.148,0.092,south,3.9,No
2019/08/09,14:10,0.194,0.174,0.295,0.279,0.271,0.149,0.092,south,3.8,No
2019/08/09,14:20,0.194,0.173,0.296,0.279,0.270,0.149,0.092,south-southeast,3.9,No
2019/08/09,14:30,0.192,0.174,0.295,0.280,0.271,0.149,0.091,south-southeast,3.5,No
2019/08/09,14:40,0.193,0.173,0.295,0.279,0.270,0.149,0.092,south,2.3,No
2019/08/09,14:50,0.193,0.174,0.295,0.278,0.269,0.148,0.091,south-southeast,3.3,No
2019/08/09,15:00,0.193,0.172,0.295,0.277,0.268,0.146,0.090,south-southeast,5.0,No
2019/08/09,15:10,0.190,0.172,0.293,0.277,0.269,0.146,0.091,south-southeast,4.0,No
2019/08/09,15:20,0.191,0.173,0.294,0.277,0.269,0.146,0.091,south-southeast,7.1,No
2019/08/09,15:30,0.190,0.172,0.294,0.276,0.270,0.146,0.090,south,6.8,No
2019/08/09,15:40,0.190,0.172,0.293,0.276,0.270,0.147,0.090,south,7.0,No
2019/08/09,15:50,0.192,0.172,0.294,0.278,0.269,0.146,0.091,south,6.7,No
2019/08/09,16:00,0.192,0.173,0.293,0.278,0.270,0.147,0.090,south,6.8,No
2019/08/09,16:10,0.193,0.173,0.293,0.277,0.270,0.147,0.090,south,4.8,No
2019/08/09,16:20,0.193,0.173,0.294,0.278,0.271,0.147,0.090,south-southwest,4.0,No
2019/08/09,16:30,0.193,0.174,0.295,0.279,0.270,0.147,0.090,south,4.3,No
2019/08/09,16:40,0.192,0.173,0.294,0.279,0.268,0.147,0.091,south-southeast,4.9,No
2019/08/09,16:50,0.192,0.173,0.295,0.278,0.269,0.147,0.090,south-southeast,5.7,No
2019/08/09,17:00,0.192,0.173,0.293,0.277,0.271,0.147,0.091,south-southeast,6.6,No
2019/08/09,17:10,0.191,0.173,0.293,0.277,0.270,0.147,0.090,south-southeast,7.0,No
2019/08/09,17:20,0.190,0.173,0.295,0.276,0.270,0.146,0.090,south-southeast,7.7,No
2019/08/09,17:30,0.192,0.172,0.294,0.276,0.270,0.146,0.090,south-southeast,7.1,No
2019/08/09,17:40,0.192,0.172,0.293,0.277,0.271,0.147,0.091,south,6.4,No
2019/08/09,17:50,0.191,0.173,0.295,0.277,0.270,0.148,0.090,south,5.9,No
2019/08/09,18:00,0.191,0.172,0.294,0.276,0.271,0.148,0.091,south,5.3,No
2019/08/09,18:10,0.192,0.173,0.294,0.277,0.271,0.147,0.091,south-southeast,5.7,No
2019/08/09,18:20,0.192,0.172,0.294,0.277,0.271,0.147,0.091,south,6.2,No
2019/08/09,18:30,0.191,0.172,0.295,0.279,0.270,0.148,0.091,south,5.7,No
2019/08/09,18:40,0.192,0.172,0.295,0.283,0.270,0.148,0.091,south,5.3,No
2019/08/09,18:50,0.195,0.175,0.300,0.282,0.269,0.148,0.090,south,3.8,No
2019/08/09,19:00,0.195,0.175,0.299,0.280,0.269,0.148,0.090,south,3.3,No
2019/08/09,19:10,0.193,0.174,0.297,0.278,0.272,0.147,0.090,south,3.6,No
2019/08/09,19:20,0.192,0.173,0.295,0.277,0.275,0.147,0.090,south,3.3,No
2019/08/09,19:30,0.192,0.173,0.294,0.279,0.274,0.149,0.092,south,3.6,No
2019/08/09,19:40,0.191,0.175,0.295,0.282,0.272,0.148,0.092,south,3.9,No
2019/08/09,19:50,0.195,0.174,0.300,0.283,0.270,0.147,0.092,south,4.8,No
2019/08/09,20:00,0.194,0.173,0.297,0.281,0.271,0.148,0.090,south,2.8,No
2019/08/09,20:10,0.192,0.172,0.297,0.279,0.270,0.148,0.090,south-southwest,4.3,No
2019/08/09,20:20,0.193,0.173,0.295,0.277,0.274,0.149,0.091,south-southwest,3.5,No
2019/08/09,20:30,0.192,0.175,0.294,0.277,0.275,0.149,0.091,south,4.2,No
2019/08/09,20:40,0.192,0.175,0.295,0.282,0.273,0.148,0.092,south-southwest,2.6,No
2019/08/09,20:50,0.195,0.174,0.299,0.283,0.272,0.147,0.092,west-southwest,1.4,No
2019/08/09,21:00,0.194,0.173,0.298,0.280,0.270,0.148,0.091,west,0.9,No
2019/08/09,21:10,0.194,0.174,0.297,0.277,0.270,0.149,0.091,-,CALM,No
2019/08/09,21:20,0.192,0.175,0.294,0.278,0.275,0.149,0.093,north-northwest,1.5,No
2019/08/09,21:30,0.194,0.174,0.295,0.281,0.275,0.147,0.092,north-northwest,1.7,No
2019/08/09,21:40,0.196,0.173,0.300,0.283,0.275,0.148,0.091,north-northwest,1.7,No
2019/08/09,21:50,0.195,0.175,0.300,0.281,0.272,0.150,0.092,north-northwest,1.3,No
2019/08/09,22:00,0.194,0.176,0.298,0.280,0.271,0.150,0.093,northwest,1.2,No
2019/08/09,22:10,0.192,0.175,0.296,0.279,0.273,0.149,0.093,northwest,2.1,No
2019/08/09,22:20,0.195,0.174,0.295,0.281,0.276,0.149,0.092,west-northwest,1.8,No
2019/08/09,22:30,0.196,0.175,0.300,0.282,0.274,0.149,0.092,west-northwest,2.2,No
2019/08/09,22:40,0.194,0.176,0.301,0.281,0.273,0.150,0.093,northwest,1.9,No
2019/08/09,22:50,0.193,0.176,0.298,0.280,0.271,0.148,0.092,northwest,1.7,No
2019/08/09,23:00,0.193,0.175,0.296,0.277,0.271,0.148,0.092,west-northwest,1.1,No
2019/08/09,23:10,0.196,0.174,0.294,0.281,0.273,0.149,0.092,northwest,0.6,No
2019/08/09,23:20,0.195,0.176,0.300,0.283,0.276,0.148,0.093,north-northwest,1.1,No
2019/08/09,23:30,0.193,0.175,0.300,0.281,0.274,0.148,0.091,northwest,1.7,No
2019/08/09,23:40,0.192,0.173,0.297,0.279,0.273,0.148,0.092,northwest,0.6,No
2019/08/09,23:50,0.193,0.174,0.296,0.279,0.270,0.150,0.093,northwest,1.5,No
